User: anonymous   Login
Location: Unspecified
(0.0000°N, 0.0000°E)
Time: 05:50:18
(UTC+00:00)
Language:

STARLINK-5257 - Orbit

View from above orbital plane
View from above orbital plane
View from above satellite
View from above satellite

Ground track
Ground track

The orbit is defined by the following mean orbital elements,

1 55316U          26145.38651910 +.00000000 +00000-0 +54697-4 0 00009
2 55316  69.9985 170.9732 0003923 273.0141  87.0569 14.98320731    05
Epoch (UTC): 25 May 2026 09:16:35
Eccentricity: 0.0003923
inclination: 69.9985°
perigee height: 569 km
apogee height: 575 km
right ascension of ascending node: 170.9732°
argument of perigee: 273.0141°
revolutions per day: 14.98320731
mean anomaly at epoch: 87.0569°

The dashed part of the orbit path shows where the satellite is in the earth's shadow,  

DLR